User: anonymous   Login
Location: NJAA Observatory
(40.6819°N, 74.8979°W)
Time: 03:36:08
(UTC-04:00)
Language:

Cosmos 2082 - Orbit

View from above orbital plane
View from above orbital plane
View from above satellite
View from above satellite

Ground track
Ground track

The orbit data is extracted from the following two-line orbital elements,

1 20624U 90046A   15150.98607166  .00000290  00000-0  17691-3 0  9996
2 20624 071.0408 340.5127 0013174 088.8782 271.3849 14.14159044291419
Epoch (UTC): 30 May 2015 23:39:56
Eccentricity: 0.0013174
inclination: 71.0408°
perigee height: 835 km
apogee height: 854 km
right ascension of ascending node: 340.5127°
argument of perigee: 88.8782°
revolutions per day: 14.14159044
mean anomaly at epoch: 271.3849°
orbit number at epoch: 29141

The dashed part of the orbit path shows where the satellite is in the earth's shadow,  

DLR